Regional Weather Roundup
Issued by NWS Charleston, WV

Home | Current Version | Previous Version | Text Only | Print | Product List | Glossary On
Versions: 1 2 3 4 5 6 7 8 9 10 11 12 13 14 15 16 17 18 19 20 21 22 23 24 25 26 27 28 29 30 31 32 33 34 35 36 37 38 39 40 41 42 43 44 45 46 47 48 49 50
000
ASUS41 KRLX 020210
RWRRLX
West Virginia Regional Weather Roundup
National Weather Service Charleston WV
900 PM EST SUN FEB 01 2015

Note: "fair" indicates few or no clouds below 12,000 feet with no
significant weather and/or obstructions to visibility.

WVZ003-020300-
Northern Panhandle of West Virginia

CITY           SKY/WX    TMP DP  RH WIND       PRES   REMARKS
WHEELING       LGT RAIN  37  35  92 S13G21    29.58F FOG
$$

WVZ009-020300-
Northwest West Virginia

CITY           SKY/WX    TMP DP  RH WIND       PRES   REMARKS
PARKERSBURG    RAIN      42  39  89 S9        29.61F FOG
$$

WVZ006-020300-
Western West Virginia

CITY           SKY/WX    TMP DP  RH WIND       PRES   REMARKS
HUNTINGTON     LGT RAIN  46  44  93 S9        29.60F
$$

WVZ015-020300-
West Central West Virginia

CITY           SKY/WX    TMP DP  RH WIND       PRES   REMARKS
CHARLESTON     LGT RAIN  46  42  86 S3        29.62F
$$

WVZ022-031-020300-
North Central West Virginia

CITY           SKY/WX    TMP DP  RH WIND       PRES   REMARKS
CLARKSBURG     LGT RAIN  39  36  89 CALM      29.64F
MORGANTOWN     LGT RAIN  40  33  76 SE12G21   29.64F
$$

WVZ025-035-042-045-020300-
Southern West Virginia

CITY           SKY/WX    TMP DP  RH WIND       PRES   REMARKS
BECKLEY        LGT RAIN  40  36  86 S14G21    29.72F
LOGAN          CLOUDY    46  43  87 S10G24    29.63F
BLUEFIELD      CLOUDY    47  37  68 S14G26    29.74F
LEWISBURG      LGT RAIN  38  36  94 NE3       29.79F
$$

WVZ047-020300-
Northern Mountains of West Virginia

CITY           SKY/WX    TMP DP  RH WIND       PRES   REMARKS
ELKINS         LGT RAIN  37  36  96 S8        29.71F
$$

WVZ052-020300-
Eastern Panhandle of West Virginia

CITY           SKY/WX    TMP DP  RH WIND       PRES   REMARKS
MARTINSBURG    CLOUDY    40  24  53 S10G25    29.90F
PETERSBURG     MIX PCPN  35  35 100 E7        29.83F
$$


USA.gov is the U.S. government's official web portal to all federal, state and local government web resources and services.